THURAYA-2

Last updated on Sat Sep 05 2026 00:03:01 GMT+0000 (Coordinated Universal Time)

1 27825U 03026A 26247.53333825 .00000119 00000+0 00000+0 0 9997 2 27825 8.9605 31.5762 0001151 47.7519 140.3366 1.00272256 85145
UTC large
Height (km)
Speed (km/s)
/
Latitude / Longitude
Inclination (degrees)
Orbital Period (minutes)
Azimuth
Elevation
Range (km)
Doppler Factor

Next 0 passes for location: London (51.5072 / 0.1276)

No passes found over London.
THURAYA-2